Year,Month,Day,Hour,Minute,Value (Times are PST for temperature in C)
2007,06,26,00,00,10.50
2007,06,26,00,01,10.50
2007,06,26,00,02,10.50
2007,06,26,00,03,10.60
2007,06,26,00,04,10.60
2007,06,26,00,05,10.60
2007,06,26,00,06,10.60
2007,06,26,00,07,10.60
2007,06,26,00,08,10.50
2007,06,26,00,09,10.50
2007,06,26,00,10,10.50
2007,06,26,00,11,10.50
2007,06,26,00,12,10.40
2007,06,26,00,13,10.40
2007,06,26,00,14,10.40
2007,06,26,00,15,10.40
2007,06,26,00,16,10.40
2007,06,26,00,17,10.40
2007,06,26,00,18,10.30
2007,06,26,00,19,10.30
2007,06,26,00,20,10.30
2007,06,26,00,21,10.30
2007,06,26,00,22,10.20
2007,06,26,00,23,10.20
2007,06,26,00,24,10.20
2007,06,26,00,25,10.30
2007,06,26,00,26,10.30
2007,06,26,00,27,10.30
2007,06,26,00,28,10.30
2007,06,26,00,29,10.40
2007,06,26,00,30,10.40
2007,06,26,00,31,10.40
2007,06,26,00,32,10.40
2007,06,26,00,33,10.50
2007,06,26,00,34,10.50
2007,06,26,00,35,10.50
2007,06,26,00,36,10.50
2007,06,26,00,37,10.50
2007,06,26,00,38,10.50
2007,06,26,00,39,10.50
2007,06,26,00,40,10.50
2007,06,26,00,41,10.50
2007,06,26,00,42,10.50
2007,06,26,00,43,10.50
2007,06,26,00,44,10.50
2007,06,26,00,45,10.50
2007,06,26,00,46,10.40
2007,06,26,00,47,10.40
2007,06,26,00,48,10.40
2007,06,26,00,49,10.50
2007,06,26,00,50,10.50
2007,06,26,00,51,10.50
2007,06,26,00,52,10.50
2007,06,26,00,53,10.50
2007,06,26,00,54,10.50
2007,06,26,00,55,10.50
2007,06,26,00,56,10.50
2007,06,26,00,57,10.50
2007,06,26,00,58,10.50
2007,06,26,00,59,10.50
2007,06,26,01,00,10.40
2007,06,26,01,01,10.40
2007,06,26,01,02,10.40
2007,06,26,01,03,10.40
2007,06,26,01,04,10.40
2007,06,26,01,05,10.40
2007,06,26,01,06,10.40
2007,06,26,01,07,10.30
2007,06,26,01,08,10.30
2007,06,26,01,09,10.30
2007,06,26,01,10,10.30
2007,06,26,01,11,10.30
2007,06,26,01,12,10.30
2007,06,26,01,13,10.30
2007,06,26,01,14,10.30
2007,06,26,01,15,10.30
2007,06,26,01,16,10.30
2007,06,26,01,17,10.30
2007,06,26,01,18,10.30
2007,06,26,01,19,10.30
2007,06,26,01,20,10.30
2007,06,26,01,21,10.30
2007,06,26,01,22,10.30
2007,06,26,01,23,10.30
2007,06,26,01,24,10.30
2007,06,26,01,25,10.30
2007,06,26,01,26,10.40
2007,06,26,01,27,10.40
2007,06,26,01,28,10.40
2007,06,26,01,29,10.40
2007,06,26,01,30,10.30
2007,06,26,01,31,10.30
2007,06,26,01,32,10.30
2007,06,26,01,33,10.30
2007,06,26,01,34,10.30
2007,06,26,01,35,10.30
2007,06,26,01,36,10.30
2007,06,26,01,37,10.30
2007,06,26,01,38,10.20
2007,06,26,01,39,10.20
2007,06,26,01,40,10.20
2007,06,26,01,41,10.20
2007,06,26,01,42,10.20
2007,06,26,01,43,10.20
2007,06,26,01,44,10.20
2007,06,26,01,45,10.20
2007,06,26,01,46,10.20
2007,06,26,01,47,10.20
2007,06,26,01,48,10.20
2007,06,26,01,49,10.20
2007,06,26,01,50,10.10
2007,06,26,01,51,10.10
2007,06,26,01,52,10.10
2007,06,26,01,53,10.10
2007,06,26,01,54,10.20
2007,06,26,01,55,10.20
2007,06,26,01,56,10.20
2007,06,26,01,57,10.20
2007,06,26,01,58,10.20
2007,06,26,01,59,10.20
2007,06,26,02,00,10.30
2007,06,26,02,01,10.30
2007,06,26,02,02,10.30
2007,06,26,02,03,10.30
2007,06,26,02,04,10.30
2007,06,26,02,05,10.30
2007,06,26,02,06,10.30
2007,06,26,02,07,10.30
2007,06,26,02,08,10.30
2007,06,26,02,09,10.30
2007,06,26,02,10,10.30
2007,06,26,02,11,10.30
2007,06,26,02,12,10.30
2007,06,26,02,13,10.30
2007,06,26,02,14,10.30
2007,06,26,02,15,10.30
2007,06,26,02,16,10.30
2007,06,26,02,17,10.30
2007,06,26,02,18,10.30
2007,06,26,02,19,10.30
2007,06,26,02,20,10.30
2007,06,26,02,21,10.30
2007,06,26,02,22,10.30
2007,06,26,02,23,10.30
2007,06,26,02,24,10.30
2007,06,26,02,25,10.40
2007,06,26,02,26,10.40
2007,06,26,02,27,10.40
2007,06,26,02,28,10.50
2007,06,26,02,29,10.50
2007,06,26,02,30,10.50
2007,06,26,02,31,10.50
2007,06,26,02,32,10.50
2007,06,26,02,33,10.50
2007,06,26,02,34,10.40
2007,06,26,02,35,10.40
2007,06,26,02,36,10.40
2007,06,26,02,37,10.40
2007,06,26,02,38,10.40
2007,06,26,02,39,10.40
2007,06,26,02,40,10.40
2007,06,26,02,41,10.30
2007,06,26,02,42,10.30
2007,06,26,02,43,10.30
2007,06,26,02,44,10.30
2007,06,26,02,45,10.30
2007,06,26,02,46,10.30
2007,06,26,02,47,10.30
2007,06,26,02,48,10.30
2007,06,26,02,49,10.30
2007,06,26,02,50,10.30
2007,06,26,02,51,10.30
2007,06,26,02,52,10.30
2007,06,26,02,53,10.30
2007,06,26,02,54,10.20
2007,06,26,02,55,10.20
2007,06,26,02,56,10.20
2007,06,26,02,57,10.20
2007,06,26,02,58,10.20
2007,06,26,02,59,10.20
2007,06,26,03,00,10.20
2007,06,26,03,01,10.10
2007,06,26,03,02,10.10
2007,06,26,03,03,10.10
2007,06,26,03,04,10.10
2007,06,26,03,05,10.10
2007,06,26,03,06,10.10
2007,06,26,03,07,10.10
2007,06,26,03,08,10.10
2007,06,26,03,09,10.10
2007,06,26,03,10,10.10
2007,06,26,03,11,10.10
2007,06,26,03,12,10.20
2007,06,26,03,13,10.20
2007,06,26,03,14,10.20
2007,06,26,03,15,10.20
2007,06,26,03,16,10.20
2007,06,26,03,17,10.20
2007,06,26,03,18,10.20
2007,06,26,03,19,10.10
2007,06,26,03,20,10.10
2007,06,26,03,21,10.10
2007,06,26,03,22,10.10
2007,06,26,03,23,10.20
2007,06,26,03,24,10.20
2007,06,26,03,25,10.20
2007,06,26,03,26,10.20
2007,06,26,03,27,10.20
2007,06,26,03,28,10.20
2007,06,26,03,29,10.20
2007,06,26,03,30,10.10
2007,06,26,03,31,10.10
2007,06,26,03,32,10.10
2007,06,26,03,33,10.10
2007,06,26,03,34,10.10
2007,06,26,03,35,10.00
2007,06,26,03,36,10.00
2007,06,26,03,37,10.00
2007,06,26,03,38,10.00
2007,06,26,03,39,10.00
2007,06,26,03,40,9.90
2007,06,26,03,41,9.90
2007,06,26,03,42,9.90
2007,06,26,03,43,9.90
2007,06,26,03,44,9.90
2007,06,26,03,45,9.90
2007,06,26,03,46,9.90
2007,06,26,03,47,9.90
2007,06,26,03,48,9.90
2007,06,26,03,49,9.90
2007,06,26,03,50,9.90
2007,06,26,03,51,9.90
2007,06,26,03,52,9.80
2007,06,26,03,53,9.90
2007,06,26,03,54,9.90
2007,06,26,03,55,9.80
2007,06,26,03,56,9.80
2007,06,26,03,57,9.80
2007,06,26,03,58,9.80
2007,06,26,03,59,9.80
2007,06,26,04,00,9.80
2007,06,26,04,01,9.80
2007,06,26,04,02,9.80
2007,06,26,04,03,9.80
2007,06,26,04,04,9.80
2007,06,26,04,05,9.80
2007,06,26,04,06,9.80
2007,06,26,04,07,9.80
2007,06,26,04,08,9.80
2007,06,26,04,09,9.80
2007,06,26,04,10,9.80
2007,06,26,04,11,9.80
2007,06,26,04,12,9.80
2007,06,26,04,13,9.70
2007,06,26,04,14,9.70
2007,06,26,04,15,9.70
2007,06,26,04,16,9.70
2007,06,26,04,17,9.70
2007,06,26,04,18,9.70
2007,06,26,04,19,9.70
2007,06,26,04,20,9.70
2007,06,26,04,21,9.70
2007,06,26,04,22,9.70
2007,06,26,04,23,9.70
2007,06,26,04,24,9.70
2007,06,26,04,25,9.70
2007,06,26,04,26,9.70
2007,06,26,04,27,9.70
2007,06,26,04,28,9.70
2007,06,26,04,29,9.70
2007,06,26,04,30,9.70
2007,06,26,04,31,9.60
2007,06,26,04,32,9.60
2007,06,26,04,33,9.60
2007,06,26,04,34,9.60
2007,06,26,04,35,9.60
2007,06,26,04,36,9.60
2007,06,26,04,37,9.60
2007,06,26,04,38,9.60
2007,06,26,04,39,9.60
2007,06,26,04,40,9.60
2007,06,26,04,41,9.60
2007,06,26,04,42,9.60
2007,06,26,04,43,9.60
2007,06,26,04,44,9.60
2007,06,26,04,45,9.50
2007,06,26,04,46,9.50
2007,06,26,04,47,9.50
2007,06,26,04,48,9.50
2007,06,26,04,49,9.40
2007,06,26,04,50,9.40
2007,06,26,04,51,9.40
2007,06,26,04,52,9.40
2007,06,26,04,53,9.40
2007,06,26,04,54,9.30
2007,06,26,04,55,9.30
2007,06,26,04,56,9.30
2007,06,26,04,57,9.30
2007,06,26,04,58,9.30
2007,06,26,04,59,9.30
2007,06,26,05,00,9.30
2007,06,26,05,01,9.30
2007,06,26,05,02,9.30
2007,06,26,05,03,9.30
2007,06,26,05,04,9.30
2007,06,26,05,05,9.30
2007,06,26,05,06,9.30
2007,06,26,05,07,9.30
2007,06,26,05,08,9.20
2007,06,26,05,09,9.20
2007,06,26,05,10,9.20
2007,06,26,05,11,9.20
2007,06,26,05,12,9.20
2007,06,26,05,13,9.20
2007,06,26,05,14,9.20
2007,06,26,05,15,9.20
2007,06,26,05,16,9.20
2007,06,26,05,17,9.20
2007,06,26,05,18,9.10
2007,06,26,05,19,9.10
2007,06,26,05,20,9.10
2007,06,26,05,21,9.10
2007,06,26,05,22,9.10
2007,06,26,05,23,9.10
2007,06,26,05,24,9.10
2007,06,26,05,25,9.00
2007,06,26,05,26,9.00
2007,06,26,05,27,9.00
2007,06,26,05,28,9.00
2007,06,26,05,29,9.00
2007,06,26,05,30,9.00
2007,06,26,05,31,9.00
2007,06,26,05,32,9.00
2007,06,26,05,33,9.00
2007,06,26,05,34,9.00
2007,06,26,05,35,9.00
2007,06,26,05,36,9.00
2007,06,26,05,37,9.00
2007,06,26,05,38,9.00
2007,06,26,05,39,9.00
2007,06,26,05,40,9.00
2007,06,26,05,41,9.00
2007,06,26,05,42,9.10
2007,06,26,05,43,9.10
2007,06,26,05,44,9.10
2007,06,26,05,45,9.10
2007,06,26,05,46,9.10
2007,06,26,05,47,9.10
2007,06,26,05,48,9.20
2007,06,26,05,49,9.20
2007,06,26,05,50,9.20
2007,06,26,05,51,9.20
2007,06,26,05,52,9.20
2007,06,26,05,53,9.20
2007,06,26,05,54,9.20
2007,06,26,05,55,9.20
2007,06,26,05,56,9.20
2007,06,26,05,57,9.30
2007,06,26,05,58,9.30
2007,06,26,05,59,9.30
2007,06,26,06,00,9.30
2007,06,26,06,01,9.40
2007,06,26,06,02,9.40
2007,06,26,06,03,9.40
2007,06,26,06,04,9.50
2007,06,26,06,05,9.50
2007,06,26,06,06,9.60
2007,06,26,06,07,9.60
2007,06,26,06,08,9.60
2007,06,26,06,09,9.60
2007,06,26,06,10,9.60
2007,06,26,06,11,9.60
2007,06,26,06,12,9.70
2007,06,26,06,13,9.70
2007,06,26,06,14,9.70
2007,06,26,06,15,9.70
2007,06,26,06,16,9.70
2007,06,26,06,17,9.70
2007,06,26,06,18,9.70
2007,06,26,06,19,9.70
2007,06,26,06,20,9.70
2007,06,26,06,21,9.70
2007,06,26,06,22,9.70
2007,06,26,06,23,9.70
2007,06,26,06,24,9.80
2007,06,26,06,25,9.80
2007,06,26,06,26,9.80
2007,06,26,06,27,9.80
2007,06,26,06,28,9.80
2007,06,26,06,29,9.80
2007,06,26,06,30,9.80
2007,06,26,06,31,9.90
2007,06,26,06,32,9.90
2007,06,26,06,33,9.90
2007,06,26,06,34,10.00
2007,06,26,06,35,10.00
2007,06,26,06,36,10.00
2007,06,26,06,37,10.10
2007,06,26,06,38,10.10
2007,06,26,06,39,10.10
2007,06,26,06,40,10.10
2007,06,26,06,41,10.10
2007,06,26,06,42,10.20
2007,06,26,06,43,10.20
2007,06,26,06,44,10.20
2007,06,26,06,45,10.20
2007,06,26,06,46,10.30
2007,06,26,06,47,10.30
2007,06,26,06,48,10.40
2007,06,26,06,49,10.50
2007,06,26,06,50,10.60
2007,06,26,06,51,10.70
2007,06,26,06,52,10.80
2007,06,26,06,53,10.90
2007,06,26,06,54,11.00
2007,06,26,06,55,11.10
2007,06,26,06,56,11.20
2007,06,26,06,57,11.30
2007,06,26,06,58,11.30
2007,06,26,06,59,11.30
2007,06,26,07,00,11.40
2007,06,26,07,01,11.40
2007,06,26,07,02,11.40
2007,06,26,07,03,11.50
2007,06,26,07,04,11.60
2007,06,26,07,05,11.60
2007,06,26,07,06,11.70
2007,06,26,07,07,11.80
2007,06,26,07,08,11.90
2007,06,26,07,09,12.00
2007,06,26,07,10,12.00
2007,06,26,07,11,12.10
2007,06,26,07,12,12.20
2007,06,26,07,13,12.20
2007,06,26,07,14,12.30
2007,06,26,07,15,12.30
2007,06,26,07,16,12.40
2007,06,26,07,17,12.40
2007,06,26,07,18,12.40
2007,06,26,07,19,12.50
2007,06,26,07,20,12.50
2007,06,26,07,21,12.60
2007,06,26,07,22,12.60
2007,06,26,07,23,12.70
2007,06,26,07,24,12.70
2007,06,26,07,25,12.70
2007,06,26,07,26,12.80
2007,06,26,07,27,12.80
2007,06,26,07,28,12.80
2007,06,26,07,29,12.90
2007,06,26,07,30,12.90
2007,06,26,07,31,13.00
2007,06,26,07,32,13.00
2007,06,26,07,33,13.10
2007,06,26,07,34,13.20
2007,06,26,07,35,13.20
2007,06,26,07,36,13.30
2007,06,26,07,37,13.30
2007,06,26,07,38,13.40
2007,06,26,07,39,13.40
2007,06,26,07,40,13.50
2007,06,26,07,41,13.60
2007,06,26,07,42,13.70
2007,06,26,07,43,13.70
2007,06,26,07,44,13.80
2007,06,26,07,45,13.80
2007,06,26,07,46,13.90
2007,06,26,07,47,13.90
2007,06,26,07,48,13.90
2007,06,26,07,49,14.00
2007,06,26,07,50,14.00
2007,06,26,07,51,14.00
2007,06,26,07,52,14.10
2007,06,26,07,53,14.10
2007,06,26,07,54,14.10
2007,06,26,07,55,14.10
2007,06,26,07,56,14.10
2007,06,26,07,57,14.00
2007,06,26,07,58,14.00
2007,06,26,07,59,14.00
2007,06,26,08,00,14.00
2007,06,26,08,01,14.00
2007,06,26,08,02,14.00
2007,06,26,08,03,14.00
2007,06,26,08,04,14.00
2007,06,26,08,05,14.10
2007,06,26,08,06,14.20
2007,06,26,08,07,14.30
2007,06,26,08,08,14.30
2007,06,26,08,09,14.40
2007,06,26,08,10,14.50
2007,06,26,08,11,14.60
2007,06,26,08,12,14.70
2007,06,26,08,13,14.80
2007,06,26,08,14,14.80
2007,06,26,08,15,14.80
2007,06,26,08,16,14.80
2007,06,26,08,17,14.70
2007,06,26,08,18,14.70
2007,06,26,08,19,14.70
2007,06,26,08,20,14.60
2007,06,26,08,21,14.70
2007,06,26,08,22,14.70
2007,06,26,08,23,14.80
2007,06,26,08,24,14.90
2007,06,26,08,25,15.00
2007,06,26,08,26,15.00
2007,06,26,08,27,15.00
2007,06,26,08,28,15.00
2007,06,26,08,29,15.20
2007,06,26,08,30,15.30
2007,06,26,08,31,15.30
2007,06,26,08,32,15.40
2007,06,26,08,33,15.40
2007,06,26,08,34,15.50
2007,06,26,08,35,15.50
2007,06,26,08,36,15.40
2007,06,26,08,37,15.40
2007,06,26,08,38,15.40
2007,06,26,08,39,15.30
2007,06,26,08,40,15.30
2007,06,26,08,41,15.30
2007,06,26,08,42,15.20
2007,06,26,08,43,15.20
2007,06,26,08,44,15.10
2007,06,26,08,45,15.10
2007,06,26,08,46,15.20
2007,06,26,08,47,15.20
2007,06,26,08,48,15.30
2007,06,26,08,49,15.30
2007,06,26,08,50,15.30
2007,06,26,08,51,15.40
2007,06,26,08,52,15.50
2007,06,26,08,53,15.50
2007,06,26,08,54,15.60
2007,06,26,08,55,15.70
2007,06,26,08,56,15.70
2007,06,26,08,57,15.80
2007,06,26,08,58,15.80
2007,06,26,08,59,15.90
2007,06,26,09,00,15.90
2007,06,26,09,01,15.90
2007,06,26,09,02,16.00
2007,06,26,09,03,16.00
2007,06,26,09,04,16.00
2007,06,26,09,05,16.00
2007,06,26,09,06,15.90
2007,06,26,09,07,15.80
2007,06,26,09,08,15.70
2007,06,26,09,09,15.70
2007,06,26,09,10,15.70
2007,06,26,09,11,15.70
2007,06,26,09,12,15.80
2007,06,26,09,13,15.80
2007,06,26,09,14,15.90
2007,06,26,09,15,15.90
2007,06,26,09,16,15.90
2007,06,26,09,17,15.90
2007,06,26,09,18,15.90
2007,06,26,09,19,15.90
2007,06,26,09,20,16.00
2007,06,26,09,21,16.00
2007,06,26,09,22,16.00
2007,06,26,09,23,16.10
2007,06,26,09,24,16.00
2007,06,26,09,25,16.10
2007,06,26,09,26,16.10
2007,06,26,09,27,16.10
2007,06,26,09,28,16.10
2007,06,26,09,29,16.10
2007,06,26,09,30,16.10
2007,06,26,09,31,16.10
2007,06,26,09,32,16.20
2007,06,26,09,33,16.20
2007,06,26,09,34,16.20
2007,06,26,09,35,16.20
2007,06,26,09,36,16.20
2007,06,26,09,37,16.20
2007,06,26,09,38,16.20
2007,06,26,09,39,16.20
2007,06,26,09,40,16.20
2007,06,26,09,41,16.10
2007,06,26,09,42,16.00
2007,06,26,09,43,16.00
2007,06,26,09,44,16.00
2007,06,26,09,45,16.00
2007,06,26,09,46,16.00
2007,06,26,09,47,16.00
2007,06,26,09,48,16.10
2007,06,26,09,49,16.10
2007,06,26,09,50,16.10
2007,06,26,09,51,16.10
2007,06,26,09,52,16.10
2007,06,26,09,53,16.10
2007,06,26,09,54,16.10
2007,06,26,09,55,16.00
2007,06,26,09,56,16.00
2007,06,26,09,57,16.00
2007,06,26,09,58,16.00
2007,06,26,09,59,16.00
2007,06,26,10,00,16.10
2007,06,26,10,01,16.10
2007,06,26,10,02,16.20
2007,06,26,10,03,16.30
2007,06,26,10,04,16.30
2007,06,26,10,05,16.40
2007,06,26,10,06,16.40
2007,06,26,10,07,16.40
2007,06,26,10,08,16.40
2007,06,26,10,09,16.50
2007,06,26,10,10,16.50
2007,06,26,10,11,16.40
2007,06,26,10,12,16.40
2007,06,26,10,13,16.40
2007,06,26,10,14,16.50
2007,06,26,10,15,16.50
2007,06,26,10,16,16.60
2007,06,26,10,17,16.70
2007,06,26,10,18,16.80
2007,06,26,10,19,16.80
2007,06,26,10,20,16.80
2007,06,26,10,21,16.80
2007,06,26,10,22,16.80
2007,06,26,10,23,16.90
2007,06,26,10,24,16.90
2007,06,26,10,25,17.00
2007,06,26,10,26,17.10
2007,06,26,10,27,17.20
2007,06,26,10,28,17.20
2007,06,26,10,29,17.30
2007,06,26,10,30,17.30
2007,06,26,10,31,17.30
2007,06,26,10,32,17.30
2007,06,26,10,33,17.30
2007,06,26,10,34,17.30
2007,06,26,10,35,17.30
2007,06,26,10,36,17.30
2007,06,26,10,37,17.20
2007,06,26,10,38,17.20
2007,06,26,10,39,17.20
2007,06,26,10,40,17.20
2007,06,26,10,41,17.30
2007,06,26,10,42,17.30
2007,06,26,10,43,17.30
2007,06,26,10,44,17.30
2007,06,26,10,45,17.30
2007,06,26,10,46,17.30
2007,06,26,10,47,17.30
2007,06,26,10,48,17.30
2007,06,26,10,49,17.20
2007,06,26,10,50,17.30
2007,06,26,10,51,17.30
2007,06,26,10,52,17.30
2007,06,26,10,53,17.50
2007,06,26,10,54,17.50
2007,06,26,10,55,17.50
2007,06,26,10,56,17.50
2007,06,26,10,57,17.60
2007,06,26,10,58,17.60
2007,06,26,10,59,17.60
2007,06,26,11,00,17.60
2007,06,26,11,01,17.50
2007,06,26,11,02,17.50
2007,06,26,11,03,17.50
2007,06,26,11,04,17.40
2007,06,26,11,05,17.40
2007,06,26,11,06,17.40
2007,06,26,11,07,17.40
2007,06,26,11,08,17.40
2007,06,26,11,09,17.40
2007,06,26,11,10,17.40
2007,06,26,11,11,17.40
2007,06,26,11,12,17.30
2007,06,26,11,13,17.40
2007,06,26,11,14,17.40
2007,06,26,11,15,17.50
2007,06,26,11,16,17.60
2007,06,26,11,17,17.70
2007,06,26,11,18,17.80
2007,06,26,11,19,17.80
2007,06,26,11,20,17.90
2007,06,26,11,21,18.10
2007,06,26,11,22,18.10
2007,06,26,11,23,18.10
2007,06,26,11,24,18.10
2007,06,26,11,25,18.20
2007,06,26,11,26,18.20
2007,06,26,11,27,18.30
2007,06,26,11,28,18.50
2007,06,26,11,29,18.70
2007,06,26,11,30,18.90
2007,06,26,11,31,18.90
2007,06,26,11,32,18.90
2007,06,26,11,33,19.00
2007,06,26,11,34,18.90
2007,06,26,11,35,18.90
2007,06,26,11,36,18.90
2007,06,26,11,37,18.90
2007,06,26,11,38,18.90
2007,06,26,11,39,18.90
2007,06,26,11,40,18.90
2007,06,26,11,41,19.10
2007,06,26,11,42,19.30
2007,06,26,11,43,19.50
2007,06,26,11,44,19.60
2007,06,26,11,45,19.70
2007,06,26,11,46,19.70
2007,06,26,11,47,19.80
2007,06,26,11,48,19.90
2007,06,26,11,49,19.90
2007,06,26,11,50,20.00
2007,06,26,11,51,20.00
2007,06,26,11,52,20.00
2007,06,26,11,53,20.00
2007,06,26,11,54,20.00
2007,06,26,11,55,20.00
2007,06,26,11,56,20.00
2007,06,26,11,57,20.00
2007,06,26,11,58,20.00
2007,06,26,11,59,20.10
2007,06,26,12,00,20.20
2007,06,26,12,01,20.20
2007,06,26,12,02,20.20
2007,06,26,12,03,20.20
2007,06,26,12,04,20.20
2007,06,26,12,05,20.30
2007,06,26,12,06,20.40
2007,06,26,12,07,20.50
2007,06,26,12,08,20.60
2007,06,26,12,09,20.60
2007,06,26,12,10,20.60
2007,06,26,12,11,20.60
2007,06,26,12,12,20.60
2007,06,26,12,13,20.50
2007,06,26,12,14,20.40
2007,06,26,12,15,20.40
2007,06,26,12,16,20.40
2007,06,26,12,17,20.40
2007,06,26,12,18,20.30
2007,06,26,12,19,20.30
2007,06,26,12,20,20.20
2007,06,26,12,21,20.20
2007,06,26,12,22,20.20
2007,06,26,12,23,20.30
2007,06,26,12,24,20.40
2007,06,26,12,25,20.40
2007,06,26,12,26,20.40
2007,06,26,12,27,20.50
2007,06,26,12,28,20.50
2007,06,26,12,29,20.60
2007,06,26,12,30,20.50
2007,06,26,12,31,20.50
2007,06,26,12,32,20.60
2007,06,26,12,33,20.40
2007,06,26,12,34,20.20
2007,06,26,12,35,20.10
2007,06,26,12,36,20.20
2007,06,26,12,37,20.20
2007,06,26,12,38,20.30
2007,06,26,12,39,20.30
2007,06,26,12,40,20.40
2007,06,26,12,41,20.60
2007,06,26,12,42,20.70
2007,06,26,12,43,20.80
2007,06,26,12,44,20.80
2007,06,26,12,45,20.90
2007,06,26,12,46,20.90
2007,06,26,12,47,20.80
2007,06,26,12,48,20.80
2007,06,26,12,49,20.70
2007,06,26,12,50,20.80
2007,06,26,12,51,20.80
2007,06,26,12,52,20.80
2007,06,26,12,53,20.80
2007,06,26,12,54,20.80
2007,06,26,12,55,20.80
2007,06,26,12,56,20.80
2007,06,26,12,57,20.80
2007,06,26,12,58,20.80
2007,06,26,12,59,20.70
2007,06,26,13,00,20.50
2007,06,26,13,01,20.40
2007,06,26,13,02,20.40
2007,06,26,13,03,20.40
2007,06,26,13,04,20.50
2007,06,26,13,05,20.50
2007,06,26,13,06,20.50
2007,06,26,13,07,20.40
2007,06,26,13,08,20.40
2007,06,26,13,09,20.40
2007,06,26,13,10,20.50
2007,06,26,13,11,20.60
2007,06,26,13,12,20.60
2007,06,26,13,13,20.80
2007,06,26,13,14,20.90
2007,06,26,13,15,20.90
2007,06,26,13,16,21.00
2007,06,26,13,17,21.20
2007,06,26,13,18,21.30
2007,06,26,13,19,21.50
2007,06,26,13,20,21.60
2007,06,26,13,21,21.70
2007,06,26,13,22,21.60
2007,06,26,13,23,21.60
2007,06,26,13,24,21.50
2007,06,26,13,25,21.50
2007,06,26,13,26,21.60
2007,06,26,13,27,21.60
2007,06,26,13,28,21.80
2007,06,26,13,29,21.80
2007,06,26,13,30,21.90
2007,06,26,13,31,21.90
2007,06,26,13,32,21.80
2007,06,26,13,33,21.80
2007,06,26,13,34,21.70
2007,06,26,13,35,21.60
2007,06,26,13,36,21.60
2007,06,26,13,37,21.50
2007,06,26,13,38,21.40
2007,06,26,13,39,21.30
2007,06,26,13,40,21.30
2007,06,26,13,41,21.20
2007,06,26,13,42,21.20
2007,06,26,13,43,21.10
2007,06,26,13,44,21.20
2007,06,26,13,45,21.20
2007,06,26,13,46,21.20
2007,06,26,13,47,21.10
2007,06,26,13,48,21.00
2007,06,26,13,49,20.90
2007,06,26,13,50,20.80
2007,06,26,13,51,20.80
2007,06,26,13,52,20.90
2007,06,26,13,53,21.00
2007,06,26,13,54,21.00
2007,06,26,13,55,21.10
2007,06,26,13,56,21.10
2007,06,26,13,57,21.30
2007,06,26,13,58,21.40
2007,06,26,13,59,21.60
2007,06,26,14,00,21.70
2007,06,26,14,01,21.90
2007,06,26,14,02,22.00
2007,06,26,14,03,22.10
2007,06,26,14,04,22.20
2007,06,26,14,05,22.20
2007,06,26,14,06,22.20
2007,06,26,14,07,22.30
2007,06,26,14,08,22.40
2007,06,26,14,09,22.50
2007,06,26,14,10,22.50
2007,06,26,14,11,22.50
2007,06,26,14,12,22.40
2007,06,26,14,13,22.40
2007,06,26,14,14,22.20
2007,06,26,14,15,22.10
2007,06,26,14,16,21.90
2007,06,26,14,17,21.90
2007,06,26,14,18,21.90
2007,06,26,14,19,21.90
2007,06,26,14,20,21.90
2007,06,26,14,21,21.90
2007,06,26,14,22,21.80
2007,06,26,14,23,21.70
2007,06,26,14,24,21.70
2007,06,26,14,25,21.70
2007,06,26,14,26,21.70
2007,06,26,14,27,21.70
2007,06,26,14,28,21.60
2007,06,26,14,29,21.60
2007,06,26,14,30,21.70
2007,06,26,14,31,21.70
2007,06,26,14,32,21.60
2007,06,26,14,33,21.50
2007,06,26,14,34,21.50
2007,06,26,14,35,21.40
2007,06,26,14,36,21.30
2007,06,26,14,37,21.20
2007,06,26,14,38,21.30
2007,06,26,14,39,21.30
2007,06,26,14,40,21.30
2007,06,26,14,41,21.40
2007,06,26,14,42,21.50
2007,06,26,14,43,21.50
2007,06,26,14,44,21.50
2007,06,26,14,45,21.60
2007,06,26,14,46,21.60
2007,06,26,14,47,21.60
2007,06,26,14,48,21.60
2007,06,26,14,49,21.60
2007,06,26,14,50,21.70
2007,06,26,14,51,21.70
2007,06,26,14,52,21.60
2007,06,26,14,53,21.60
2007,06,26,14,54,21.60
2007,06,26,14,55,21.60
2007,06,26,14,56,21.60
2007,06,26,14,57,21.70
2007,06,26,14,58,21.80
2007,06,26,14,59,21.70
2007,06,26,15,00,21.70
2007,06,26,15,01,21.70
2007,06,26,15,02,21.70
2007,06,26,15,03,21.60
2007,06,26,15,04,21.70
2007,06,26,15,05,21.70
2007,06,26,15,06,21.60
2007,06,26,15,07,21.60
2007,06,26,15,08,21.70
2007,06,26,15,09,21.70
2007,06,26,15,10,21.70
2007,06,26,15,11,21.80
2007,06,26,15,12,21.80
2007,06,26,15,13,21.90
2007,06,26,15,14,22.00
2007,06,26,15,15,22.20
2007,06,26,15,16,22.10
2007,06,26,15,17,22.00
2007,06,26,15,18,22.00
2007,06,26,15,19,22.00
2007,06,26,15,20,22.00
2007,06,26,15,21,22.00
2007,06,26,15,22,22.00
2007,06,26,15,23,21.80
2007,06,26,15,24,21.70
2007,06,26,15,25,21.70
2007,06,26,15,26,21.80
2007,06,26,15,27,21.90
2007,06,26,15,28,22.00
2007,06,26,15,29,21.90
2007,06,26,15,30,21.80
2007,06,26,15,31,21.80
2007,06,26,15,32,21.90
2007,06,26,15,33,22.00
2007,06,26,15,34,22.00
2007,06,26,15,35,22.00
2007,06,26,15,36,22.10
2007,06,26,15,37,22.10
2007,06,26,15,38,22.10
2007,06,26,15,39,22.20
2007,06,26,15,40,22.20
2007,06,26,15,41,22.30
2007,06,26,15,42,22.20
2007,06,26,15,43,22.30
2007,06,26,15,44,22.40
2007,06,26,15,45,22.40
2007,06,26,15,46,22.30
2007,06,26,15,47,22.20
2007,06,26,15,48,22.20
2007,06,26,15,49,22.10
2007,06,26,15,50,22.00
2007,06,26,15,51,21.90
2007,06,26,15,52,21.80
2007,06,26,15,53,21.70
2007,06,26,15,54,21.60
2007,06,26,15,55,21.40
2007,06,26,15,56,21.20
2007,06,26,15,57,21.10
2007,06,26,15,58,21.00
2007,06,26,15,59,21.00
2007,06,26,16,00,20.90
2007,06,26,16,01,20.80
2007,06,26,16,02,20.80
2007,06,26,16,03,20.80
2007,06,26,16,04,20.80
2007,06,26,16,05,20.80
2007,06,26,16,06,20.70
2007,06,26,16,07,20.70
2007,06,26,16,08,20.70
2007,06,26,16,09,20.70
2007,06,26,16,10,20.70
2007,06,26,16,11,20.70
2007,06,26,16,12,20.60
2007,06,26,16,13,20.60
2007,06,26,16,14,20.50
2007,06,26,16,15,20.40
2007,06,26,16,16,20.40
2007,06,26,16,17,20.40
2007,06,26,16,18,20.40
2007,06,26,16,19,20.40
2007,06,26,16,20,20.40
2007,06,26,16,21,20.40
2007,06,26,16,22,20.50
2007,06,26,16,23,20.50
2007,06,26,16,24,20.40
2007,06,26,16,25,20.40
2007,06,26,16,26,20.40
2007,06,26,16,27,20.40
2007,06,26,16,28,20.40
2007,06,26,16,29,20.30
2007,06,26,16,30,20.00
2007,06,26,16,31,19.90
2007,06,26,16,32,19.80
2007,06,26,16,33,19.70
2007,06,26,16,34,19.70
2007,06,26,16,35,19.70
2007,06,26,16,36,19.70
2007,06,26,16,37,19.60
2007,06,26,16,38,19.50
2007,06,26,16,39,19.50
2007,06,26,16,40,19.50
2007,06,26,16,41,19.60
2007,06,26,16,42,19.60
2007,06,26,16,43,19.60
2007,06,26,16,44,19.60
2007,06,26,16,45,19.60
2007,06,26,16,46,19.60
2007,06,26,16,47,19.60
2007,06,26,16,48,19.70
2007,06,26,16,49,19.70
2007,06,26,16,50,19.70
2007,06,26,16,51,19.70
2007,06,26,16,52,19.70
2007,06,26,16,53,19.70
2007,06,26,16,54,19.70
2007,06,26,16,55,19.70
2007,06,26,16,56,19.70
2007,06,26,16,57,19.80
2007,06,26,16,58,19.80
2007,06,26,16,59,19.80
2007,06,26,17,00,19.80
2007,06,26,17,01,19.80
2007,06,26,17,02,19.90
2007,06,26,17,03,19.90
2007,06,26,17,04,19.90
2007,06,26,17,05,19.90
2007,06,26,17,06,20.00
2007,06,26,17,07,20.00
2007,06,26,17,08,20.00
2007,06,26,17,09,20.00
2007,06,26,17,10,20.00
2007,06,26,17,11,19.90
2007,06,26,17,12,20.00
2007,06,26,17,13,20.00
2007,06,26,17,14,20.00
2007,06,26,17,15,20.00
2007,06,26,17,16,20.00
2007,06,26,17,17,20.00
2007,06,26,17,18,20.00
2007,06,26,17,19,20.00
2007,06,26,17,20,20.00
2007,06,26,17,21,20.00
2007,06,26,17,22,19.90
2007,06,26,17,23,19.90
2007,06,26,17,24,19.90
2007,06,26,17,25,19.90
2007,06,26,17,26,19.90
2007,06,26,17,27,19.80